Location: Rumah Sambob
(2.9167°N, 113.9167°E)
Time: 11:22:42
(UTC+00:00)

Cosmos 1190 Rocket - Pass Details

Date: 06 June 2020
Orbit: 756 x 780 km, 74.1° (Epoch: 05 July)

Event Time Altitude Azimuth Distance (km) Brightness Sun altitude
Rises 12:21:52 0° 342° (NNW) 3,226 7.9 -25.9°
Reaches altitude 10° 12:24:14 10° 339° (NNW) 2,305 7.1 -26.4°
Maximum altitude 12:29:25 64° 258° (WSW) 856 4.3 -27.6°
Enters shadow 12:30:09 57° 218° (SW) 910 4.3 -27.7°
